User: anonymous   Login
Location: Theydon Bois
(51.6750°N, 0.1050°E)
Time: 19:49:25
(UTC+00:00)
Language:

SL-14 R/B - Orbit

View from above orbital plane
View from above orbital plane
View from above satellite
View from above satellite

Ground track
Ground track

The orbit data is extracted from the following two-line orbital elements,

1 33505U 09003B   18047.95735613 -.00000221 +00000-0 -15568-4 0  9993
2 33505 082.3872 357.3793 0029355 052.3427 308.0458 15.09652815497732
Epoch (UTC): 16 February 2018 22:58:35
Eccentricity: 0.0029355
inclination: 82.3872°
perigee height: 517 km
apogee height: 557 km
right ascension of ascending node: 357.3793°
argument of perigee: 52.3427°
revolutions per day: 15.09652815
mean anomaly at epoch: 308.0458°
orbit number at epoch: 49773

The dashed part of the orbit path shows where the satellite is in the earth's shadow,  

DLR